Location: Roland
(31.1349°N, 85.4372°W)
Time: 23:26:05
(UTC+00:00)

S-56A Canister/Altair - Pass Details

Date: 19 April 2021
Orbit: 632 x 2501 km, 38.9° (Epoch: 11 May)

Event Time Altitude Azimuth Distance (km) Brightness Sun altitude
Exits shadow 08:38:30 37° 11° (N) 1,018 8.4 -29.9°
Drops below altitude 10° 08:42:33 10° 78° (ENE) 2,003 10.4 -29.2°
Sets 08:44:57 0° 87° (E) 2,932 11.3 -28.8°
